Date,TemperatureHighF,TemperatureAvgF,TemperatureLowF,DewpointHighF,DewpointAvgF,DewpointLowF,HumidityHigh,HumidityAvg,HumidityLow,PressureMaxIn,PressureMinIn,WindSpeedMaxMPH,WindSpeedAvgMPH,GustSpeedMaxMPH,PrecipitationSumIn
2012-1-1,61.9,54.9,48.2,50.1,44.2,37.4,81,68,52,30.12,30.02,12,3,12,1.29
2012-1-2,58.1,51.9,47.5,52.2,48.1,41.8,91,87,79,30.24,30.09,15,2,15,0.00
2012-1-3,59.4,52.0,48.1,51.3,47.8,42.4,95,86,69,30.30,30.19,7,2,7,0.00
2012-1-4,64.4,53.9,46.4,50.1,45.8,42.5,91,75,52,30.32,30.21,10,4,10,0.00
2012-1-5,57.8,50.9,44.8,52.5,46.6,40.8,91,85,76,30.25,30.08,11,2,11,0.00
2012-1-6,55.3,49.8,45.7,50.0,46.4,42.1,92,88,81,30.14,30.05,8,3,8,0.00
2012-1-7,66.8,54.2,42.8,44.9,35.0,21.0,90,56,23,30.16,30.05,15,5,15,0.00
2012-1-8,63.4,55.7,47.2,37.5,32.0,25.2,61,41,27,30.16,30.08,10,4,10,0.00
2012-1-9,59.4,50.3,42.8,47.8,41.3,33.7,85,71,58,30.19,30.08,9,4,9,0.00
2012-1-10,62.6,51.5,41.6,44.6,39.7,36.0,86,66,43,30.11,30.00,10,3,10,0.00
2012-1-11,61.9,49.7,40.5,47.5,40.2,34.2,84,70,48,30.24,29.95,7,2,7,1.29
2012-1-12,64.3,53.0,42.1,42.5,36.4,30.9,88,58,29,30.06,29.96,14,5,14,1.29
2012-1-13,63.4,52.1,41.4,45.1,38.8,33.4,80,62,38,30.16,30.05,13,4,13,1.29
2012-1-14,61.4,49.3,40.7,46.6,40.3,34.1,86,72,49,30.13,30.01,8,2,8,1.29
2012-1-15,54.0,48.3,43.6,45.5,40.3,29.2,91,75,56,30.10,29.95,15,6,15,1.29
2012-1-16,50.0,43.6,38.5,35.2,30.4,26.3,76,60,43,30.27,30.10,10,3,10,1.29
2012-1-17,50.4,42.8,34.2,40.1,34.9,28.1,83,74,66,30.36,30.26,8,3,8,1.29
2012-1-18,53.1,44.2,36.4,44.6,38.2,31.6,86,79,72,30.35,30.19,5,5,5,1.29
2012-1-19,51.3,47.9,42.1,48.6,43.8,37.6,95,86,79,30.19,29.97,5,5,5,1.29
2012-1-20,56.2,53.6,50.2,55.2,52.4,48.8,97,96,92,29.97,29.63,5,5,5,1.87
2012-1-22,54.7,51.9,51.3,53.9,49.7,48.2,97,92,87,29.80,29.66,5,5,5,2.22
2012-1-23,53.6,51.3,47.7,52.8,49.7,45.8,97,94,91,30.09,29.57,5,5,5,1.29
2012-1-24,55.1,49.9,45.0,51.9,47.8,43.0,96,92,88,30.36,30.09,6,4,6,1.29
2012-1-25,63.7,55.1,48.4,55.0,51.3,46.2,94,87,71,30.37,30.26,8,4,8,1.29
2012-1-26,58.7,54.3,50.4,55.8,52.4,48.7,95,93,89,30.29,30.17,12,6,12,0.00
2012-1-27,57.2,50.7,43.7,51.7,47.6,38.9,96,90,79,30.22,30.13,7,3,7,1.29
2012-1-28,62.6,51.1,40.1,44.9,37.0,27.9,86,63,29,30.27,30.16,19,4,19,1.29
2012-1-29,63.4,53.1,46.4,51.5,45.9,40.8,87,77,60,30.20,30.05,7,2,7,1.29
2012-1-30,57.8,52.4,47.9,52.0,48.6,44.2,92,87,81,30.06,29.95,13,2,13,1.29
2012-1-31,56.2,51.9,49.1,50.6,47.9,44.4,90,86,80,30.13,30.00,14,3,14,1.29
2012-2-1,59.4,53.1,49.3,54.9,48.6,45.6,95,85,69,30.21,30.11,9,2,9,4.17
2012-2-2,58.9,51.7,46.1,51.0,47.2,42.5,91,85,69,30.17,29.89,6,2,6,0.00
2012-2-3,60.3,52.3,44.8,47.2,42.5,33.3,90,71,40,29.99,29.92,17,4,17,0.00
2012-2-4,63.5,53.6,44.5,45.1,41.8,37.6,90,66,44,30.03,29.96,12,3,12,0.00
2012-2-5,64.4,55.1,46.1,46.7,40.2,36.8,84,59,37,30.03,29.91,11,4,11,0.00
2012-2-6,63.5,54.8,46.3,48.4,43.2,38.4,82,65,51,29.91,29.69,13,3,14,0.11
2012-2-7,57.1,54.1,52.0,51.5,49.5,47.6,90,84,79,30.05,29.69,16,4,16,0.21
2012-2-8,63.5,55.2,47.5,55.1,50.1,45.9,96,84,64,30.18,30.03,9,3,9,0.00
2012-2-9,66.6,55.5,48.1,55.3,49.9,45.1,94,82,63,30.20,30.06,9,3,9,0.01
2012-2-10,58.7,53.8,48.1,55.6,50.7,45.0,94,89,84,30.13,30.01,12,4,12,0.05
2012-2-11,57.6,53.6,50.8,53.1,50.1,46.9,93,88,83,30.01,29.93,10,4,10,0.01
2012-2-12,58.3,52.5,48.6,52.0,48.0,44.2,92,85,77,30.01,29.89,15,5,15,0.11
2012-2-13,55.6,49.4,45.4,48.4,44.7,41.9,94,84,65,29.95,29.83,18,5,18,0.11
2012-2-14,56.3,49.4,42.3,49.0,43.6,39.3,91,81,66,30.05,29.92,14,4,14,0.01
2012-2-15,58.7,51.1,44.1,48.1,34.9,25.1,90,57,28,30.24,29.98,17,6,17,4.87
2012-2-16,63.9,53.5,46.4,48.2,38.3,27.8,88,59,29,30.19,30.09,12,5,12,4.87
2012-2-17,58.5,52.8,46.3,52.7,48.7,42.7,92,86,76,30.20,30.11,11,4,11,4.87
2012-2-18,59.8,53.2,46.8,51.1,45.4,37.1,93,76,52,30.13,30.03,20,4,20,0.00
2012-2-19,55.8,49.0,43.4,45.4,40.4,35.2,82,72,60,30.09,29.99,17,4,17,0.00
2012-2-20,59.2,52.9,34.2,49.7,46.6,34.2,100,79,65,30.33,30.01,8,3,8,4.87
2012-2-21,59.0,52.3,47.7,53.2,48.4,44.0,91,87,80,30.24,30.14,10,2,10,0.00
2012-2-22,70.0,57.9,49.3,54.5,49.5,46.5,93,75,48,30.21,30.02,11,3,11,0.00
2012-2-23,74.2,62.1,51.1,48.2,40.5,26.3,87,51,19,30.03,29.89,14,4,14,0.00
2012-2-24,65.5,57.9,50.4,51.0,41.2,26.3,80,56,23,30.13,29.91,19,4,19,0.00
2012-2-25,60.8,52.8,47.9,45.6,37.8,31.7,78,58,36,30.27,30.12,17,6,17,0.00
2012-2-26,55.1,47.8,40.7,40.8,36.1,33.1,78,65,45,30.13,29.78,14,5,14,0.00
2012-2-27,54.2,46.7,40.0,43.7,38.0,34.1,87,72,59,29.91,29.74,10,4,10,0.00
2012-2-28,55.8,48.8,39.8,46.5,39.3,33.8,88,70,53,30.17,29.91,31,8,31,0.01
2012-2-29,55.3,51.0,46.3,50.7,46.1,40.6,95,84,69,30.19,29.96,32,9,32,0.44
2012-3-1,56.5,50.4,45.0,52.5,45.3,39.7,93,83,63,30.19,30.11,16,7,16,0.22
2012-3-2,60.5,50.8,42.1,45.9,40.8,31.2,86,71,39,30.29,30.18,9,3,9,0.00
2012-3-3,68.8,55.5,41.6,46.6,40.5,35.8,85,60,34,30.28,30.16,15,4,15,0.00
2012-3-4,72.7,58.4,47.2,50.6,45.5,38.9,83,64,40,30.17,29.98,5,2,5,0.00
2012-3-5,57.4,51.9,47.5,51.3,47.5,44.1,92,85,79,30.04,29.93,6,2,6,0.00
2012-3-6,57.2,51.5,46.8,48.2,35.8,25.0,89,57,30,30.01,29.87,6,6,6,0.00
2012-3-7,62.3,52.1,44.3,44.7,32.0,17.8,82,50,21,30.12,30.00,6,6,6,0.00
2012-3-8,65.2,53.3,43.6,48.8,42.5,35.2,87,68,35,30.27,30.12,5,5,5,0.00
2012-3-9,69.3,53.9,44.3,49.4,42.7,35.9,81,67,39,30.27,30.08,7,5,7,0.00
2012-3-10,59.0,51.5,43.6,51.0,45.3,38.5,86,79,74,30.08,29.93,6,6,6,0.00
2012-3-11,59.4,52.7,47.0,51.2,46.0,40.4,86,78,70,30.01,29.94,8,5,8,0.00
2012-3-12,60.8,52.0,42.8,50.6,44.4,38.4,89,76,61,29.99,29.86,6,4,6,0.00
2012-3-13,54.9,53.6,52.6,52.6,51.3,34.2,96,92,81,30.09,29.80,28,10,28,6.87
2012-3-14,56.7,55.2,53.8,55.9,54.3,34.2,97,97,95,30.17,29.88,18,8,18,1.29
2012-3-15,59.4,56.0,54.9,58.3,55.2,53.8,97,97,96,30.08,29.98,15,5,15,1.29
2012-3-16,56.9,54.5,48.6,56.1,53.5,47.2,97,96,94,29.99,29.66,24,8,24,1.29
2012-3-17,53.1,47.7,42.8,47.6,42.9,38.5,95,84,58,29.66,29.46,22,5,22,1.29
2012-3-18,53.8,48.6,44.8,40.2,36.8,31.1,81,65,45,29.88,29.57,18,9,18,1.29
2012-3-19,57.2,49.1,41.0,42.0,37.7,33.0,77,65,50,30.03,29.87,10,3,10,1.29
2012-3-20,63.0,55.2,49.3,50.6,45.2,39.5,82,70,57,30.13,30.02,4,1,4,1.29
2012-3-21,64.1,55.1,48.2,55.3,50.1,44.3,92,84,68,30.12,29.91,8,3,8,0.00
2012-3-22,61.0,54.8,47.9,52.0,44.9,30.0,93,72,32,29.96,29.87,14,5,14,1.29
2012-3-23,58.9,51.8,42.8,46.8,41.7,36.8,85,69,51,30.02,29.80,16,6,16,1.29
2012-3-24,54.4,48.8,45.2,47.7,43.7,39.1,94,83,57,29.85,29.75,24,4,24,1.18
2012-3-25,57.2,50.2,43.6,50.1,44.8,41.7,94,83,64,29.83,29.70,12,4,12,1.29
2012-3-26,60.1,52.3,43.4,48.1,44.1,38.6,89,74,61,30.02,29.83,8,4,8,1.29
2012-3-27,57.2,54.1,52.2,53.1,48.6,44.6,96,82,67,29.95,29.80,22,10,22,5.41
2012-3-28,62.3,56.8,53.1,56.4,53.3,50.0,96,88,76,30.06,29.86,16,7,16,0.81
2012-3-29,61.9,56.0,51.8,55.0,51.8,49.5,92,86,76,30.07,30.00,121,32,121,5.43
2012-3-30,62.3,58.1,54.9,56.4,54.1,52.2,91,87,80,30.04,29.82,11,5,11,5.43
2012-3-31,59.2,55.2,49.1,54.8,50.2,44.4,92,83,68,29.95,29.62,23,12,23,5.43
2012-4-1,60.1,53.0,47.0,45.7,41.4,37.1,86,66,46,30.21,29.96,18,6,18,5.43
2012-4-2,65.0,54.8,46.3,49.4,44.6,40.2,83,70,48,30.19,29.99,9,2,9,5.43
2012-4-3,62.6,55.2,48.4,53.8,48.4,41.8,87,78,68,30.04,29.94,14,3,14,5.43
2012-4-4,59.6,52.4,45.4,44.0,40.0,34.3,84,64,39,30.14,30.04,15,6,15,0.00
2012-4-5,59.0,50.2,42.7,38.2,35.3,32.7,74,57,43,30.09,30.01,8,5,8,0.00
2012-4-9,55.1,54.0,34.2,48.3,47.3,34.2,100,78,74,30.02,29.79,19,9,19,5.87
2012-4-10,57.2,54.5,52.9,54.5,51.1,45.7,95,88,72,29.83,29.74,16,5,16,0.78
2012-4-11,61.2,57.1,51.8,54.2,50.5,48.4,94,79,67,29.90,29.72,23,10,23,6.81
2012-4-12,63.0,55.3,49.3,51.7,48.8,43.8,94,80,57,29.96,29.72,27,10,27,7.77
2012-4-13,58.7,52.4,46.3,50.0,45.6,41.2,94,79,55,29.80,29.63,18,8,18,0.33
2012-4-14,64.1,55.1,47.9,53.5,45.0,38.3,87,69,55,30.06,29.80,10,5,10,0.39
2012-4-15,60.1,55.2,51.8,53.4,50.3,47.1,89,83,76,30.16,30.06,14,6,14,0.39
2012-4-16,63.9,57.0,49.9,55.0,50.6,46.6,90,80,67,30.17,30.11,13,6,13,0.39
2012-4-17,63.0,56.9,53.3,56.0,52.0,47.8,91,84,74,30.13,30.00,16,5,16,0.39
2012-4-18,67.0,59.2,51.5,58.3,52.5,48.3,89,79,68,30.10,30.03,12,5,12,0.00
2012-4-19,66.6,61.0,55.6,59.9,55.8,51.0,90,83,76,30.10,29.99,12,3,12,0.39
2012-4-20,70.0,62.1,54.9,61.9,56.5,52.2,93,82,73,30.02,29.89,8,3,8,0.39
2012-4-21,74.0,63.1,54.4,62.2,56.4,50.9,90,79,63,29.92,29.78,8,3,8,0.00
2012-4-22,64.3,58.9,53.5,57.7,54.3,51.5,94,85,77,29.86,29.79,17,7,17,0.39
2012-4-23,65.2,59.4,55.4,56.0,53.7,52.1,89,82,70,29.93,29.83,22,12,22,0.39
2012-4-24,70.4,62.8,58.3,59.6,55.5,53.6,87,77,65,29.98,29.89,16,5,16,0.39
2012-4-25,70.0,61.6,56.5,60.7,55.8,51.7,91,82,68,29.95,29.70,13,4,13,0.39
2012-4-26,63.0,58.1,53.1,55.7,49.9,42.9,94,75,50,30.13,29.70,18,8,18,0.39
2012-4-27,68.4,58.7,48.2,55.6,47.1,40.7,78,66,45,30.16,30.06,11,4,11,0.39
2012-4-28,68.4,60.3,50.6,58.4,52.5,45.5,86,76,59,30.07,29.82,13,4,13,0.39
2012-4-29,67.3,60.3,54.9,58.8,54.6,51.2,89,81,71,29.85,29.80,13,5,13,0.39
2012-4-30,69.8,60.3,53.5,60.5,53.8,49.2,91,80,61,29.91,29.83,16,5,16,0.39
2012-5-1,67.1,59.0,51.3,54.8,49.9,45.5,89,73,49,29.87,29.80,12,4,12,0.39
2012-5-2,63.4,55.9,49.3,52.0,47.8,43.5,87,75,62,29.91,29.81,20,7,20,0.39
2012-5-3,61.6,55.8,34.2,55.9,51.4,34.2,100,85,78,30.18,29.88,17,7,17,8.34
2012-5-4,65.5,58.8,52.4,52.9,48.1,43.8,91,69,50,30.14,30.01,15,6,15,0.00
2012-5-5,70.9,59.5,50.2,56.2,48.4,41.0,86,68,35,30.14,29.98,13,4,13,0.00
2012-5-6,79.2,63.1,52.6,55.1,49.3,36.7,87,65,23,29.99,29.93,15,4,15,0.00
2012-5-7,72.7,60.7,52.2,61.5,53.6,48.2,90,78,57,29.96,29.87,13,4,13,0.00
2012-5-8,67.1,58.8,52.0,58.1,53.2,49.2,92,82,71,29.91,29.84,12,5,12,8.34
2012-5-9,63.2,57.5,52.2,55.3,51.7,48.8,92,81,71,29.89,29.82,16,9,16,0.00
2012-5-10,69.8,59.7,51.3,58.1,52.3,47.6,89,77,62,29.86,29.78,13,5,13,0.00
2012-5-11,68.8,59.6,51.1,58.5,52.9,47.8,91,79,64,29.91,29.79,12,5,12,0.00
2012-5-12,64.4,57.4,51.3,56.4,52.3,49.1,93,84,73,29.98,29.90,15,7,15,0.00
2012-5-13,63.4,56.7,52.0,53.7,51.1,49.2,91,82,69,30.01,29.96,21,10,21,0.00
2012-5-14,69.3,60.8,54.7,57.4,53.1,49.0,87,76,61,30.02,29.96,12,5,12,0.00
2012-5-15,64.1,57.7,52.7,55.7,52.1,49.5,91,82,72,29.99,29.91,16,7,16,0.00
2012-5-16,61.0,55.0,52.2,54.3,51.4,49.1,93,88,78,29.97,29.87,23,7,23,0.00
2012-5-17,66.4,57.2,52.6,57.5,51.8,48.8,93,83,59,29.88,29.77,20,7,20,0.00
2012-5-18,64.3,57.8,51.5,55.7,51.1,47.8,87,79,69,29.91,29.83,16,7,16,0.00
2012-5-19,65.2,58.6,51.5,55.3,51.1,47.6,88,76,63,29.92,29.85,15,6,15,0.00
2012-5-20,67.9,60.4,54.0,57.1,52.8,48.5,90,77,60,29.94,29.85,17,6,17,0.00
2012-5-21,67.1,59.8,52.9,59.5,54.9,50.6,93,84,72,30.03,29.93,19,7,19,0.00
2012-5-22,72.7,62.6,54.7,60.6,54.8,49.3,93,77,48,30.05,29.97,14,6,14,0.00
2012-5-23,71.3,62.7,53.3,56.6,50.2,46.3,86,65,46,29.98,29.84,16,5,16,0.00
2012-5-24,69.7,60.6,52.0,54.0,48.1,44.4,81,64,47,29.85,29.65,22,6,22,0.00
2012-5-25,67.3,58.6,50.9,53.2,46.5,42.0,81,65,49,29.77,29.65,16,6,16,0.00
2012-5-26,66.2,58.1,52.7,56.2,51.4,48.6,89,79,66,30.01,29.75,17,7,17,0.00
2012-5-27,66.6,58.2,53.5,55.3,51.3,47.9,86,78,66,30.08,30.00,13,4,13,0.00
2012-5-28,67.7,59.5,52.9,56.2,51.8,46.5,91,77,62,30.00,29.94,16,5,16,0.00
2012-5-29,65.5,57.9,52.0,56.3,51.5,47.0,88,80,67,30.00,29.94,15,7,15,0.00
2012-5-30,63.9,57.8,52.9,56.6,52.4,49.7,90,82,73,30.03,29.96,18,8,18,0.00
2012-5-31,70.0,60.4,52.6,59.0,53.9,49.5,90,80,67,29.98,29.79,15,7,15,0.00
2012-6-1,65.9,60.2,54.7,58.1,55.0,52.1,92,83,74,29.80,29.70,16,8,16,0.00
2012-6-2,68.4,59.9,53.6,59.4,55.2,51.3,93,85,72,29.89,29.75,19,7,19,0.00
2012-6-3,69.5,59.9,52.4,58.5,53.9,50.2,94,81,66,29.89,29.81,14,6,14,0.00
2012-6-4,65.2,58.8,54.2,57.4,52.9,46.7,93,81,62,30.04,29.82,16,8,16,0.05
2012-6-5,68.8,59.7,52.2,51.6,46.5,42.6,81,63,44,30.11,30.03,11,6,11,0.00
2012-6-6,71.5,61.2,50.2,57.2,50.3,43.2,81,68,55,30.05,29.90,12,4,12,0.00
2012-6-7,71.6,62.1,53.6,60.5,54.4,49.0,88,76,62,29.95,29.89,13,5,13,0.00
2012-6-8,72.2,62.8,53.3,58.5,50.8,45.2,89,67,40,29.92,29.85,16,5,16,0.00
2012-6-9,73.8,62.4,50.4,58.9,48.6,39.1,77,62,34,29.93,29.80,13,4,13,0.00
2012-6-10,77.4,65.7,57.1,59.5,53.5,47.0,81,66,40,29.83,29.77,11,3,11,0.00
2012-6-11,73.4,63.4,55.8,60.0,54.6,50.8,87,74,56,29.89,29.81,19,6,19,0.00
2012-6-12,74.2,62.8,55.1,61.5,55.4,51.0,88,77,62,29.90,29.82,13,5,13,0.00
2012-6-13,67.0,59.0,53.5,56.2,53.2,50.8,93,82,66,29.85,29.68,19,9,19,8.39
2012-6-14,70.4,59.5,34.2,56.9,52.5,34.2,100,78,60,29.95,29.68,16,7,16,8.39
2012-6-15,68.2,62.1,34.2,56.1,53.5,34.2,100,74,63,29.95,29.70,16,9,16,8.39
2012-6-16,74.7,69.7,34.2,62.6,59.3,34.2,100,70,64,29.97,29.73,8,3,8,8.39
2012-6-17,67.0,61.1,34.2,58.3,55.3,34.2,100,82,72,30.01,29.79,16,8,16,8.39
2012-6-18,64.1,57.2,34.2,55.3,52.4,34.2,100,84,71,29.98,29.75,20,11,20,8.39
2012-6-19,70.7,61.0,53.3,57.5,53.8,49.8,89,78,62,29.85,29.76,17,6,17,8.39
2012-6-20,70.9,62.2,55.6,59.6,55.0,51.7,89,78,62,29.78,29.73,19,6,19,8.39
2012-6-21,65.7,58.0,34.2,56.0,52.2,34.2,100,81,67,30.06,29.74,20,10,20,8.39
2012-6-22,64.8,58.4,53.1,56.4,52.7,47.8,89,81,71,29.91,29.80,16,7,16,8.39
2012-6-23,69.8,60.9,53.8,55.3,51.2,48.1,85,71,55,29.88,29.78,19,8,19,8.39
2012-6-24,70.2,61.0,51.1,56.1,50.8,46.3,86,70,54,29.97,29.87,17,6,17,8.39
2012-6-25,70.6,62.0,53.3,57.2,52.7,46.3,87,72,61,30.01,29.96,19,6,19,8.39
2012-6-26,76.3,64.0,52.2,61.8,52.0,46.7,84,66,43,29.99,29.82,14,5,14,8.39
2012-6-27,69.5,62.4,55.1,58.7,54.8,49.6,89,77,64,29.88,29.80,17,6,17,8.39
2012-6-28,73.4,63.1,56.0,61.5,56.7,52.8,89,80,65,30.01,29.88,13,5,13,8.39
2012-6-29,73.1,63.8,57.2,61.5,57.8,54.3,92,81,67,30.03,29.94,14,7,14,8.39
2012-6-30,72.7,64.9,58.0,63.7,59.7,55.5,92,84,72,29.96,29.86,13,6,13,8.39
2012-7-1,70.2,63.9,59.6,62.7,59.0,56.3,90,84,76,29.89,29.80,20,7,20,8.39
2012-7-2,66.6,61.3,57.8,58.4,56.3,53.8,90,84,74,29.82,29.77,23,8,23,8.39
2012-7-3,69.1,61.6,55.1,58.6,54.9,51.9,89,79,66,29.83,29.74,19,10,19,8.39
2012-7-4,66.1,59.6,55.4,57.4,54.0,52.0,91,82,72,29.81,29.72,20,10,20,8.39
2012-7-5,68.8,60.0,55.4,59.6,54.2,51.3,88,81,71,29.92,29.81,20,8,20,8.39
2012-7-6,65.9,59.7,55.3,58.9,54.8,52.1,90,84,76,29.95,29.89,17,7,17,8.39
2012-7-7,68.6,60.1,54.4,59.8,55.3,51.8,93,85,71,29.92,29.85,17,7,17,8.39
2012-7-8,64.3,58.1,54.2,57.5,54.3,51.6,92,87,77,29.96,29.90,22,9,22,8.39
2012-7-9,67.5,59.0,54.5,58.6,54.7,52.5,94,86,72,29.98,29.88,19,8,19,8.39
2012-7-10,68.2,59.9,54.2,59.8,55.0,51.6,92,84,72,29.89,29.76,13,6,13,8.39
2012-7-11,67.1,59.1,34.2,59.2,54.9,34.2,100,86,74,30.02,29.72,16,7,16,8.39
2012-7-12,64.1,58.3,54.2,57.2,54.1,52.2,94,86,76,29.79,29.74,18,8,18,0.00
2012-7-13,66.4,58.0,53.8,57.9,53.7,51.3,92,86,73,29.85,29.77,15,7,15,0.00
2012-7-14,63.4,58.5,54.7,56.0,53.9,51.8,92,85,76,29.88,29.81,18,9,18,0.00
2012-7-15,68.8,60.6,55.6,59.6,55.7,52.4,92,84,71,29.85,29.77,16,8,16,0.00
2012-7-16,63.9,58.6,55.3,56.5,54.4,52.8,93,86,74,29.85,29.74,21,12,21,0.00
2012-7-17,69.7,61.5,57.1,57.7,54.7,51.5,92,79,62,29.93,29.82,14,6,14,0.00
2012-7-18,69.3,62.1,57.1,58.9,55.0,52.6,87,78,65,29.95,29.89,14,5,14,0.00
2012-7-19,71.1,63.1,56.3,62.0,57.2,53.4,91,81,70,29.97,29.89,13,5,13,0.00
2012-7-20,70.7,64.0,58.5,61.5,58.3,55.6,90,82,72,30.01,29.90,11,5,11,0.00
2012-7-21,72.4,64.2,57.8,62.5,58.1,54.6,91,81,70,29.92,29.80,15,6,15,0.00
2012-7-22,65.3,60.6,56.3,58.3,55.8,53.7,92,84,77,29.85,29.78,18,10,18,0.00
2012-7-23,65.2,60.4,56.2,57.3,55.1,53.3,90,83,74,29.86,29.81,22,14,22,0.00
2012-7-24,67.9,61.9,56.9,58.7,55.6,53.4,89,80,70,29.90,29.85,17,9,17,0.00
2012-7-25,66.4,60.6,34.2,58.0,55.2,34.2,100,83,72,30.11,29.87,17,9,17,8.39
2012-7-26,65.9,59.8,56.3,58.1,54.9,52.7,90,84,74,29.93,29.87,18,9,18,0.00
2012-7-27,64.8,59.0,55.3,58.1,54.8,52.2,92,86,77,29.96,29.89,17,8,17,0.00
2012-7-28,67.7,60.8,56.0,60.2,56.1,53.3,91,85,74,29.98,29.92,17,7,17,0.00
2012-7-29,66.1,59.8,55.4,59.0,55.6,52.8,92,86,76,29.97,29.89,16,7,16,0.00
2012-7-30,69.5,62.2,56.5,62.0,57.2,53.5,92,84,75,29.91,29.81,14,6,14,0.00
2012-7-31,64.6,59.9,56.5,58.2,55.5,53.6,91,86,77,29.92,29.84,18,9,18,0.00
2012-8-1,65.2,58.9,56.0,58.7,55.1,53.6,92,87,77,29.99,29.90,19,9,19,0.00
2012-8-2,65.5,59.0,55.6,58.9,55.2,53.3,92,87,77,29.93,29.82,17,8,17,0.00
2012-8-3,62.5,57.9,54.9,56.6,54.3,52.3,92,88,80,29.84,29.75,17,10,17,0.00
2012-8-4,65.2,58.8,54.0,59.6,55.5,51.7,93,89,80,29.90,29.76,15,7,15,0.00
2012-8-5,68.8,62.6,58.1,61.0,57.8,53.6,93,85,72,30.01,29.88,13,6,13,0.00
2012-8-6,69.5,62.3,56.7,61.2,56.7,52.6,88,82,71,30.05,29.96,13,4,13,0.00
2012-8-7,70.2,63.3,57.6,60.4,57.3,54.6,91,81,70,29.99,29.90,15,6,15,0.00
2012-8-8,69.5,62.4,57.1,60.3,56.6,53.6,90,82,71,29.94,29.84,17,7,17,0.00
2012-8-9,67.3,60.4,55.4,60.4,56.0,53.1,93,86,76,29.87,29.76,15,7,15,0.00
2012-8-10,58.0,57.4,56.5,54.9,54.3,53.6,91,90,89,29.77,29.74,9,5,9,0.00
2012-8-20,59.6,55.5,34.2,55.5,53.1,34.2,100,92,87,30.01,29.78,20,8,20,8.39
2012-8-21,63.2,58.1,54.7,57.1,54.8,52.7,94,89,79,29.86,29.78,19,9,19,0.04
2012-8-22,63.7,58.6,55.1,57.8,55.2,52.8,93,88,79,29.87,29.80,15,7,15,0.04
2012-8-23,64.4,58.4,54.2,58.8,55.2,52.1,94,89,81,29.88,29.78,17,8,17,8.39
2012-8-24,63.9,58.5,55.6,57.1,54.6,53.1,92,87,77,29.83,29.77,18,8,18,8.39
2012-8-25,61.7,57.5,54.4,55.7,53.9,52.2,93,88,79,29.81,29.75,18,9,18,8.39
2012-8-26,68.6,62.0,55.8,58.7,55.1,52.2,89,79,67,29.91,29.77,14,6,14,8.39
2012-8-27,70.9,63.3,56.5,63.0,58.2,53.3,91,84,74,29.98,29.87,10,4,10,8.39
2012-8-28,69.8,63.9,57.8,62.3,58.2,54.9,92,82,72,29.96,29.85,10,4,10,8.39
2012-8-29,70.6,63.1,56.7,61.9,57.5,53.5,91,82,73,29.87,29.71,14,4,14,8.39
2012-8-30,62.5,58.6,55.6,56.7,55.0,53.5,94,88,81,29.78,29.69,19,9,19,0.00
2012-8-31,65.5,59.4,56.2,58.0,54.7,51.5,92,85,74,29.88,29.77,16,7,16,8.39
2012-9-1,65.2,58.7,55.3,57.1,54.0,51.7,91,85,73,29.96,29.87,15,6,15,8.39
2012-9-2,66.4,59.5,55.4,59.3,55.6,52.8,92,87,77,29.91,29.82,11,4,11,8.39
2012-9-3,67.3,59.6,54.5,60.0,55.8,52.4,95,88,75,29.90,29.83,15,6,15,8.39
2012-9-4,62.3,57.2,34.2,57.7,54.3,34.2,100,90,81,30.09,29.88,15,6,15,8.39
2012-9-5,64.3,58.6,55.3,58.0,54.9,52.8,92,88,78,29.93,29.85,15,5,15,0.00
2012-9-6,64.8,59.1,34.2,57.4,54.1,34.2,100,84,75,30.13,29.87,15,5,15,8.39
2012-9-7,67.7,59.9,52.4,59.1,54.3,49.1,91,82,70,30.02,29.92,13,4,13,0.00
2012-9-8,67.1,60.4,56.3,58.7,55.0,52.6,89,83,72,29.99,29.88,15,7,15,0.00
2012-9-9,69.1,61.1,55.1,59.7,55.6,51.9,90,83,70,29.92,29.81,14,6,14,0.00
2012-9-10,67.7,60.7,56.3,60.2,56.1,53.4,91,85,76,29.86,29.74,16,6,16,0.00
2012-9-11,65.7,59.6,34.2,59.2,55.3,34.2,100,86,78,30.06,29.76,17,9,17,8.39
2012-9-12,66.1,59.8,56.0,59.9,56.2,53.6,93,88,79,30.01,29.88,11,6,11,0.00
2012-9-13,66.4,58.9,34.2,60.0,55.6,34.2,100,89,79,30.02,29.93,15,5,15,8.39
2012-9-14,65.9,58.4,34.2,59.6,55.1,34.2,100,89,79,30.16,29.93,16,6,16,8.39
2012-9-15,64.3,57.9,54.2,58.5,54.1,51.5,93,87,79,30.03,29.91,14,6,14,8.39
2012-9-16,63.0,56.7,53.1,56.5,53.2,51.1,94,88,79,29.98,29.89,14,6,14,8.39
2012-9-17,63.7,58.1,54.0,56.0,53.2,51.0,91,84,75,29.99,29.91,15,7,15,8.39
2012-9-18,65.7,58.3,52.9,57.8,53.1,48.8,89,83,72,30.04,29.93,15,4,15,0.00
2012-9-19,66.6,59.4,55.6,58.7,54.8,52.1,89,85,75,30.03,29.95,16,6,16,8.39
2012-9-20,65.0,59.8,54.9,57.5,54.4,51.7,90,83,75,29.99,29.89,18,7,18,0.00
2012-9-21,66.4,60.2,54.7,58.4,54.9,51.8,91,83,72,29.92,29.80,13,6,13,0.00
2012-9-22,57.1,55.9,53.6,53.0,52.1,49.8,88,87,86,29.84,29.83,6,3,6,0.00
2012-9-23,58.5,56.1,34.2,54.7,53.6,34.2,100,92,87,30.06,29.85,16,9,16,8.39
2012-9-24,66.1,59.3,54.7,60.2,55.4,52.1,92,87,77,29.89,29.80,13,6,13,0.00
2012-9-25,63.4,57.8,55.4,58.2,54.7,53.1,93,89,82,29.85,29.78,18,7,18,0.00
2012-9-26,61.7,57.2,54.4,56.1,53.6,51.9,93,88,81,29.83,29.76,16,8,16,8.39
2012-9-27,63.4,57.1,54.2,58.6,54.3,52.2,95,91,83,29.86,29.75,12,5,12,0.00
2012-9-28,62.1,56.7,53.1,57.5,54.2,51.6,95,91,83,29.90,29.79,15,6,15,0.00
2012-9-29,63.2,57.7,54.9,58.0,54.6,52.6,94,90,82,29.96,29.88,13,5,13,0.00
2012-9-30,72.0,61.2,53.5,62.9,56.9,52.1,95,86,70,29.98,29.87,11,4,11,0.00
2012-10-1,79.7,64.8,55.6,61.3,57.0,50.6,91,77,44,29.92,29.80,6,2,6,0.00
2012-10-2,84.4,66.5,56.2,62.7,57.1,49.9,87,74,41,29.80,29.69,6,2,6,0.00
2012-10-3,71.3,63.9,59.6,62.9,58.4,55.6,90,83,69,29.91,29.72,20,7,20,0.00
2012-10-4,65.2,61.0,58.0,58.2,56.0,53.5,90,84,76,30.06,29.91,21,10,21,8.39
2012-10-5,68.8,62.2,58.0,61.8,57.2,54.0,90,84,74,30.07,29.99,14,5,14,0.00
2012-10-6,67.1,60.9,55.1,62.9,55.4,52.0,94,82,72,29.99,29.88,10,4,10,0.00
2012-10-7,65.2,59.4,52.9,58.9,54.1,49.0,92,83,73,29.93,29.85,12,4,12,0.00
2012-10-8,66.1,59.8,53.6,59.8,55.1,50.7,92,85,74,29.96,29.91,15,6,15,0.00
2012-10-9,67.9,61.1,56.2,59.7,56.1,52.5,90,84,74,29.95,29.86,11,4,11,0.00
2012-10-10,58.9,58.3,57.6,55.0,54.5,53.8,89,87,86,29.87,29.86,9,3,9,0.00
2012-10-14,65.7,61.8,59.0,61.1,58.4,56.4,93,89,85,30.02,29.99,8,4,8,8.40
2012-10-15,69.1,62.2,58.5,61.8,58.8,56.5,94,89,75,30.01,29.88,10,4,10,8.40
2012-10-16,71.1,64.1,59.4,66.1,60.8,56.4,95,89,81,29.92,29.78,9,3,9,0.00
2012-10-17,72.4,61.9,55.3,62.0,56.8,52.6,94,84,54,29.83,29.73,8,2,8,0.00
2012-10-18,77.0,67.1,55.8,63.5,56.3,41.7,90,70,43,29.95,29.78,17,5,17,8.40
2012-10-19,67.5,63.1,58.1,63.2,60.1,55.2,94,90,83,29.98,29.84,15,6,15,8.40
2012-10-20,65.7,59.9,55.8,60.5,55.8,51.0,93,86,66,29.85,29.71,14,6,14,0.00
2012-10-21,64.1,57.5,53.6,53.8,50.9,49.4,88,79,65,29.85,29.75,15,7,15,0.03
2012-10-22,62.5,56.8,53.3,55.5,53.0,50.4,95,88,73,29.85,29.61,24,8,24,1.90
2012-10-23,61.6,56.1,51.8,55.3,51.3,49.6,94,85,69,29.97,29.85,12,5,12,0.28
2012-10-24,63.0,57.7,52.0,57.6,52.5,49.5,92,83,74,30.13,29.93,15,8,15,0.05
2012-10-25,66.1,58.4,54.4,55.0,52.0,49.7,90,80,60,30.19,30.09,12,4,12,0.02
2012-10-26,67.0,59.0,52.4,54.8,50.7,44.8,86,75,50,30.15,30.01,9,3,9,0.00
2012-10-27,70.9,60.8,54.2,62.0,56.3,51.0,92,85,70,30.01,29.87,10,3,10,0.00
2012-10-28,68.8,60.4,34.2,62.5,57.1,34.2,100,89,80,30.10,29.86,11,4,11,10.72
2012-10-29,63.7,58.6,34.2,59.8,56.1,34.2,100,92,85,30.23,29.94,11,3,11,10.72
2012-10-30,62.6,58.3,55.1,58.7,55.9,53.4,94,92,87,30.01,29.88,11,4,11,10.72
2012-10-31,62.6,60.0,58.0,58.1,57.0,55.8,94,90,83,29.93,29.88,15,6,15,0.13
2012-11-1,63.7,59.5,53.6,60.8,57.3,50.7,96,92,88,29.98,29.90,8,3,8,0.20
2012-11-2,64.3,55.8,48.4,58.0,51.5,45.9,93,86,73,30.01,29.94,10,2,10,0.00
2012-11-3,71.5,60.7,51.7,59.6,53.9,48.3,90,79,57,30.06,29.98,8,2,8,0.00
2012-11-4,75.1,61.8,54.4,62.6,56.1,50.7,92,82,55,30.12,30.04,8,2,8,0.00
2012-11-5,77.8,65.8,56.5,63.0,57.5,53.0,93,76,52,30.06,29.95,10,3,10,0.00
2012-11-6,76.7,63.4,54.7,62.9,56.8,50.6,91,80,57,29.99,29.90,10,2,10,0.00
2012-11-7,60.1,57.4,54.5,56.8,54.6,50.7,92,90,87,29.98,29.83,14,5,14,0.00
2012-11-8,60.8,54.1,48.6,52.0,46.3,42.1,88,75,69,29.88,29.80,16,6,16,0.03
2012-11-9,56.3,50.4,43.6,48.0,43.4,38.6,90,77,54,29.91,29.80,11,3,11,0.02
2012-11-10,58.5,51.2,45.7,43.8,41.9,39.6,82,71,53,30.16,29.90,9,3,9,0.00
2012-11-11,58.3,49.4,41.0,46.9,41.4,37.0,88,75,56,30.29,30.16,9,2,9,0.00
2012-11-12,60.5,52.3,43.9,44.8,40.5,37.5,83,65,46,30.29,30.17,10,3,10,0.00
2012-11-13,67.1,57.1,47.2,50.7,42.7,38.4,84,60,39,30.19,30.00,12,4,12,11.10
2012-11-14,66.8,59.7,52.9,52.5,47.5,41.6,82,64,52,30.04,29.92,14,4,14,11.10
2012-11-15,65.7,56.4,48.4,54.4,49.4,42.7,87,78,57,29.95,29.86,13,3,13,11.10
2012-11-16,62.3,56.4,51.5,56.2,52.9,46.8,92,88,80,29.92,29.76,11,2,11,11.10
2012-11-17,60.8,58.3,54.9,59.7,56.4,51.6,96,93,88,29.92,29.70,19,6,19,11.10
2012-11-18,60.3,55.7,50.9,57.2,51.9,48.7,94,87,76,30.08,29.92,10,2,10,11.10
2012-11-19,64.1,58.7,54.0,56.4,52.4,48.6,88,80,72,30.14,30.06,11,4,11,11.10
2012-11-20,63.4,59.6,56.7,58.2,55.8,51.3,94,87,79,30.06,29.93,20,10,20,11.10
2012-11-21,63.0,58.2,50.4,59.8,54.2,46.4,95,87,66,30.12,29.94,9,3,9,11.10
2012-11-22,61.6,53.6,48.2,52.7,48.0,44.8,89,81,61,30.17,30.09,8,3,8,11.10
2012-11-23,65.3,55.9,48.6,53.2,49.0,45.2,92,79,59,30.17,30.07,11,4,11,11.10
2012-11-24,66.2,55.9,49.3,53.0,49.6,46.5,93,80,57,30.10,29.94,9,4,9,11.10
2012-11-25,57.6,52.9,50.0,53.9,50.3,47.8,95,91,86,29.95,29.83,6,2,6,11.10
2012-11-26,56.3,52.1,49.3,54.0,50.0,47.5,95,93,90,29.98,29.88,11,2,11,11.10
2012-11-27,60.5,55.6,50.4,56.7,52.4,48.9,95,89,80,30.03,29.90,9,3,9,11.10
2012-11-28,60.8,57.6,55.4,57.6,53.7,50.5,95,87,78,29.95,29.71,27,9,27,11.10
2012-11-29,60.7,58.9,34.2,58.0,54.8,34.2,100,86,76,30.15,29.76,25,11,25,12.43
2012-11-30,60.1,58.7,57.4,58.8,57.2,55.9,96,95,92,29.92,29.69,26,9,26,0.00
2012-12-1,60.8,58.4,56.9,59.7,56.9,54.9,97,95,90,29.95,29.79,20,8,20,0.00
2012-12-2,61.6,56.5,34.2,59.6,53.2,34.2,100,89,70,30.03,29.64,27,6,27,12.43
2012-12-3,57.8,51.6,44.6,53.0,48.7,42.7,97,90,83,30.12,30.01,8,2,8,0.00
2012-12-4,59.8,56.4,52.2,56.4,53.4,50.0,96,90,85,30.14,30.07,9,2,9,0.00
2012-12-5,61.6,59.8,57.2,61.3,58.0,54.0,99,94,85,30.07,30.01,7,2,7,0.00
2012-12-6,59.2,56.9,53.8,57.1,54.9,51.2,99,93,86,30.05,29.98,5,1,5,0.00